Regional Weather Roundup
Issued by NWS Portland, ME

Home | Current Version | Previous Version | Text Only | Print | Product List | Glossary On
Versions: 1 2 3 4 5 6 7 8 9 10 11 12 13 14 15 16 17 18 19 20 21 22 23 24 25 26 27 28 29 30 31 32 33 34 35 36 37 38 39 40 41 42 43 44 45 46 47 48 49 50
000
ASUS41 KGYX 301410
RWRGYX
WEATHER ROUNDUP FOR MAINE AND NEW HAMPSHIRE
NATIONAL WEATHER SERVICE GRAY ME
900 AM EST FRI JAN 30 2015

MEZ002-005-006-010-012-015-018-020-021-024-026-027-029-301500-
MAINE

CITY           SKY/WX    TMP DP  RH WIND       PRES   REMARKS
PORTLAND       LGT SNOW  29  26  89 NW6       29.83F VSB 3/4
SANFORD        CLOUDY    27  21  80 CALM      29.82S VSB 1
BAR HARBOR     CLOUDY    27  27 100 CALM      29.87F
WISCASSET      LGT SNOW  28  26  92 CALM      29.84F FOG
ROCKLAND       CLOUDY    37  34  87 SE7       29.84F
FRYEBURG       LGT SNOW  24  21  88 CALM      29.82F FOG
LEWISTONAUBURN CLOUDY    23  19  86 CALM      29.82F VSB 3/4
AUGUSTA        LGT SNOW  21  18  88 N8        29.83F FOG
WATERVILLE     CLOUDY    21  18  86 N7        29.81F
BANGOR         LGT SNOW  20  17  88 CALM      29.86F FOG
GREENVILLE       N/A     20  18  92 VRB3      29.76S
MILLINOCKET    LGT SNOW  20  16  84 CALM      29.87F VSB 1
HOULTON        LGT SNOW  20  16  84 SW3       29.87S FOG
PRESQUE ISLE   CLOUDY    19  18  93 SE10      29.86F WCI   8
FRENCHVILLE    LGT SNOW  16  13  88 SE5       29.82F VSB 3/4
CARIBOU        LGT SNOW  20  17  88 S5        29.85F VSB 1
$$

NHZ002-005-008-009-011-012-014-301500-
NEW HAMPSHIRE

CITY           SKY/WX    TMP DP  RH WIND       PRES   REMARKS
PORTSMOUTH     LGT SNOW  28  26  91 NW5       29.81F FOG
ROCHESTER      LGT SNOW  27  25  92 CALM      29.80F FOG
NASHUA         MIX PCPN  26  25  96 CALM      29.82F FOG
MANCHESTER     LGT SNOW  27  26  96 CALM      29.80F FOG
CONCORD        LGT SNOW  28  25  88 CALM      29.81S FOG
LACONIA        CLOUDY    27  21  80 CALM      29.79S
PLYMOUTH       LGT SNOW  25  25 100 CALM      29.81F
BERLIN         LGT SNOW  26  22  84 N3        29.76S VSB 3/4
WHITEFIELD     LGT SNOW  26  23  88 CALM      29.77S FOG
JAFFREY        MIX PCPN  27  25  92 CALM      29.76F FOG
KEENE          CLOUDY    28  27  93 CALM      29.79F
LEBANON        CLOUDY    27  23  85 NE6       29.79F FOG
MT WASHINGTON  SNOW      10  10 100 SW18        N/A  VSB 1/8 WCI  -8
$$

VTZ005-007-008-301500-
VERMONT

CITY           SKY/WX    TMP DP  RH WIND       PRES   REMARKS
ST JOHNSBURY     N/A     26  23  88 MISG      29.79R
MONTPELIER     LGT SNOW  23  21  92 CALM      29.80S FOG
BURLINGTON     LGT SNOW  29  24  82 SW6       29.82R
$$

MAZ007-012-024-CTZ003-RIZ002-NYZ038-NYZ072-301500-
SOUTHERN NEW ENGLAND AND NY

CITY           SKY/WX    TMP DP  RH WIND       PRES   REMARKS
BOSTON         FLURRIES  32  29  88 S3        29.82F
WORCESTER      LGT SNOW  28  27  96 W7        29.76F FOG
NANTUCKET      CLOUDY    38  37  97 CALM      29.82F FOG
PROVIDENCE     LGT SNOW  33  31  92 CALM      29.82S VSB 1
HARTFORD       LGT SNOW  30  27  88 NW6       29.81S FOG
ALBANY         SNOW      28  25  88 S5        29.85R VSB 1/2
NEW YORK CITY  LGT SNOW  33  26  75 W13G21    29.87R
$$

ANZ081-ANZ082-ANZ150-NHZ014-MEZ023>029-301500-
COASTAL MARINE OBSERVATIONS

STATION/POSITION TIME  TEMP    WIND        PRES    WAVE
                       AIR SEA DIR/SP/G            HT/PER
                 (UTC) (F)     (DEG/KT/KT) (MB)    (FT/S)
MOUNT DESERT ROC 1400   38                 1011.3F
MATINICUS ROCK   1400          150/ 22/ 23 1010.2F
PORTLAND WX BUOY 1350   39 41  170/ 16/ 17 1009.2F   3/ 5
WELLS            1300   33 34  290/  1/  3 1009.5F
ISLE OF SHOALS   1400   35     240/  9/ 11 1008.8F
JEFFREYS LEDGE   1321      44                N/A     4/ 5
CASHES LEDGE BUO 1350   40 44  150/ 17/ 19 1009.9F   4/10
$$

.............KEY..............
   WCI - WIND CHILL
   TC  - TEMPERATURE IN CELSIUS
   VSB - VISIBILITY IN MILES
   HX  - HEAT INDEX
   FAIR- INDICATES FEW OR NO CLOUDS BELOW 12,000 FT, WITH NO
         SIGNIFICANT WEATHER AND/OR OBSTRUCTIONS TO VISIBILITY.





USA.gov is the U.S. government's official web portal to all federal, state and local government web resources and services.